Lid_Strength_Index
5 5 5 4 4 4 4 4 4 4 4 3 3 3 3 2 2 5 7 4 3 1 2 5 5 6 6 7 6 6 10 11 11 11 10 8 8 6 6 7 6 5 6 5 4
5 5 5 5 4 4 4 4 4 4 4 4 3 3 3 2 5 7 5 3 2 2 5 6 7 7 7 8 7 8 10 11 9 9 9 8 8 7 7 7 7 6 5 4 4
4 4 5 5 5 4 4 4 4 4 4 4 4 3 3 3 7 8 3 3 3 3 5 5 6 7 9 8 8 9 10 9 9 8 8 8 8 7 7 8 7 8 7 6 5
4 4 4 5 5 5 4 4 4 4 4 4 4 3 3 5 10 7 4 4 4 4 6 6 7 8 9 10 9 11 9 9 9 8 8 8 7 8 7 7 7 6 6 6 6
3 4 4 4 5 5 5 4 4 4 4 4 4 3 4 8 9 5 4 4 5 5 7 8 9 9 10 10 10 10 9 9 8 8 8 8 8 8 8 7 6 6 6 6 6
5 4 4 3 4 5 5 5 4 4 5 4 4 3 6 11 6 5 5 5 6 6 7 7 8 8 9 10 10 9 9 9 9 8 8 9 8 8 7 7 7 7 7 6 6
4 5 5 4 3 4 5 5 5 4 5 4 4 5 8 9 6 5 6 6 5 6 7 6 7 8 8 10 9 9 10 10 9 9 9 8 10 9 8 7 7 7 7 7 6
4 5 5 6 5 3 4 5 5 5 5 5 4 6 10 6 5 7 6 6 5 5 6 6 6 8 8 8 10 11 10 12 9 9 8 9 11 8 8 8 8 8 8 7 7
5 5 5 6 5 5 5 4 5 5 5 5 6 7 11 6 8 7 6 8 7 6 6 7 8 9 9 11 12 11 12 13 12 9 10 10 11 8 8 8 9 8 8 8 7
4 5 5 5 5 6 4 5 5 6 6 6 7 10 10 10 8 7 6 7 8 7 8 8 10 11 11 12 15 12 13 13 13 10 10 10 10 8 8 9 9 8 8 8 8
4 4 5 5 6 6 7 8 9 10 9 10 10 11 10 8 7 8 7 8 8 9 12 10 13 13 12 12 12 12 13 13 12 11 12 11 11 9 8 9 9 9 9 8 8
4 4 4 5 6 6 8 10 11 10 14 12 11 10 9 8 11 9 7 10 10 12 12 12 14 12 12 12 12 12 13 13 12 11 12 11 11 9 8 9 9 9 9 9 9
3 4 4 5 6 8 10 11 7 8 13 13 11 12 11 10 12 11 9 10 12 13 13 14 13 12 13 14 13 13 13 14 13 12 11 12 11 11 10 9 9 8 8 8 9
3 4 4 6 9 9 11 9 8 8 13 14 13 11 10 10 13 9 8 10 12 13 13 13 13 14 14 14 13 15 12 13 13 13 14 12 18 15 11 11 10 9 9 9 10
3 4 4 6 10 12 11 9 8 10 20 14 14 10 11 13 12 11 9 10 13 13 13 14 14 15 15 14 13 14 12 13 13 13 14 13 15 14 12 13 11 9 9 10 10
3 4 4 8 8 9 10 10 11 16 19 15 14 14 14 13 13 11 11 10 10 13 13 13 12 13 13 13 13 12 13 13 13 13 17 15 15 15 12 12 10 9 9 10 10
3 4 6 7 9 8 8 11 17 19 14 16 16 14 15 15 14 13 13 14 14 16 16 15 14 13 13 14 13 13 14 16 18 18 17 15 16 13 11 10 10 10 10 10 10
3 4 6 7 7 8 9 14 17 16 15 14 15 15 17 15 14 14 14 15 13 14 14 16 17 15 13 14 15 14 14 16 19 18 16 16 17 12 10 10 9 9 9 11 11
3 6 8 8 8 8 11 16 16 14 13 14 15 16 16 15 15 15 15 14 13 13 15 15 16 14 14 13 14 15 17 14 17 18 18 15 13 11 12 11 10 10 10 11 11
7 9 9 8 8 9 14 14 14 13 12 13 15 14 16 16 17 16 15 13 14 13 13 14 17 15 15 13 14 14 13 16 16 19 19 16 16 14 14 12 11 10 10 10 11
7 10 9 8 8 13 16 16 14 13 12 13 13 14 14 16 15 16 15 14 13 14 13 14 15 17 15 16 15 16 16 15 15 16 19 19 15 11 11 11 11 10 9 10 11
7 14 9 8 16 16 16 15 13 14 12 13 12 13 14 15 16 15 15 14 13 13 15 14 15 18 17 15 15 14 14 14 16 18 17 18 17 12 10 10 10 9 9 10 10
11 13 8 9 16 17 16 15 15 15 14 13 14 13 14 15 16 15 15 14 13 13 14 14 16 17 17 18 16 17 15 14 14 15 17 18 15 12 12 11 10 9 9 10 11
13 15 14 13 13 13 15 16 16 14 13 13 13 13 14 15 14 16 16 15 13 13 13 13 16 16 16 17 17 19 16 15 15 17 16 16 14 14 13 12 11 10 9 11 11
13 14 12 16 15 14 12 14 15 17 14 12 15 13 13 16 16 16 15 16 14 14 14 15 17 18 17 17 17 17 17 16 16 15 17 14 14 12 11 11 10 9 9 11 11
12 13 12 11 12 14 13 14 13 13 15 15 15 14 12 13 13 16 15 15 15 14 15 15 18 18 19 17 18 19 18 17 16 15 14 14 15 11 10 10 10 10 10 11 12
10 8 11 11 13 14 14 13 13 11 12 12 13 14 14 13 11 11 11 11 13 14 15 16 17 18 18 20 21 22 21 18 16 14 14 16 13 10 11 11 10 10 10 11 11